EGV5709 EGLL-LOWW

Flight info

Callsign EGV5709
Flight time 1h 42m
Altitude 39000
Route DET L6 DVR UL9 KONAN DCT KOK UL607 FERDI DCT MATUG DCT GUBAX DCT BARSU DCT EKSOS DCT LULAR DCT RUDAP DCT BUDEX BUDEX2W
Aircraft A346/H-SDE2E3FGHIJ3J4J5M1RWXY/LB1D1

Departure

Time 2026-05-04 16:56
Airport London Heathrow Airport (EGLL)

Arrival

Time 2026-05-04 18:38
Airport Vienna International Airport (LOWW)
Time Latitude Longitude Altitude Speed Heading
2026-05-04 16:18 51.46903 -0.46418 95 ft 0 kts 55°
2026-05-04 16:37 51.46876 -0.46480 95 ft 0 kts 55°
2026-05-04 16:37 51.46861 -0.46502 96 ft 0 kts 21°
2026-05-04 16:37 51.46836 -0.46495 94 ft 0 kts 324°
2026-05-04 16:45 51.46907 -0.46569 98 ft 19 kts 327°
2026-05-04 16:46 51.47305 -0.46725 94 ft 21 kts 360°
2026-05-04 16:46 51.47446 -0.46754 97 ft 0 kts 346°
2026-05-04 16:47 51.47477 -0.46753 97 ft 6 kts 20°
2026-05-04 16:48 51.47516 -0.46408 94 ft 17 kts 89°
2026-05-04 16:48 51.47516 -0.46194 94 ft 21 kts 90°
2026-05-04 16:49 51.47509 -0.45656 98 ft 27 kts 94°
2026-05-04 16:49 51.47509 -0.45058 98 ft 27 kts 90°
2026-05-04 16:50 51.47503 -0.44482 97 ft 23 kts 90°
2026-05-04 16:50 51.47505 -0.43911 97 ft 27 kts 89°
2026-05-04 16:51 51.47464 -0.43730 96 ft 0 kts 112°
2026-05-04 16:53 51.47469 -0.43333 94 ft 17 kts 60°
2026-05-04 16:54 51.47581 -0.43255 98 ft 20 kts 357°
2026-05-04 16:55 51.47698 -0.43328 100 ft 13 kts 317°
2026-05-04 16:55 51.47767 -0.43519 98 ft 0 kts 271°
2026-05-04 16:56 51.47766 -0.44222 97 ft 93 kts 270°
2026-05-04 16:56 51.47714 -0.49569 993 ft 185 kts 270°
2026-05-04 16:57 51.47667 -0.51667 1624 ft 190 kts 267°
2026-05-04 16:57 51.46064 -0.54958 2466 ft 216 kts 190°
2026-05-04 16:58 51.41654 -0.52363 3711 ft 258 kts 133°
2026-05-04 16:58 51.40388 -0.50243 4453 ft 266 kts 133°
2026-05-04 16:59 51.37755 -0.45991 5788 ft 271 kts 136°
2026-05-04 17:00 51.32276 -0.37572 5948 ft 273 kts 124°
2026-05-04 17:00 51.31676 -0.28679 5979 ft 272 kts 87°
2026-05-04 17:01 51.31746 -0.22597 5978 ft 272 kts 89°
2026-05-04 17:01 51.31697 -0.16540 5960 ft 272 kts 90°
2026-05-04 17:02 51.31618 -0.10482 5971 ft 272 kts 91°
2026-05-04 17:02 51.31531 -0.04423 5980 ft 272 kts 90°
2026-05-04 17:03 51.31487 -0.01394 5969 ft 272 kts 91°
2026-05-04 17:03 51.31440 0.01624 5951 ft 272 kts 91°
2026-05-04 17:03 51.31346 0.07668 5967 ft 272 kts 91°
2026-05-04 17:04 51.31249 0.13724 5970 ft 272 kts 91°
2026-05-04 17:04 51.31149 0.19781 5966 ft 272 kts 91°
2026-05-04 17:05 51.31045 0.25798 5965 ft 272 kts 91°
2026-05-04 17:05 51.30939 0.31855 5977 ft 272 kts 91°
2026-05-04 17:06 51.30827 0.37916 5966 ft 272 kts 91°
2026-05-04 17:06 51.30771 0.40942 5966 ft 272 kts 91°
2026-05-04 17:07 51.30657 0.47002 5966 ft 272 kts 91°
2026-05-04 17:07 51.30638 0.47987 5976 ft 272 kts 91°
2026-05-04 17:07 51.30539 0.53071 5964 ft 273 kts 91°
2026-05-04 17:07 51.30481 0.56066 5976 ft 273 kts 91°
2026-05-04 17:08 51.30353 0.59094 5971 ft 273 kts 97°
2026-05-04 17:08 51.29444 0.65154 6884 ft 284 kts 106°
2026-05-04 17:08 51.28892 0.68162 8088 ft 280 kts 107°
2026-05-04 17:09 51.28338 0.71169 9108 ft 284 kts 107°
2026-05-04 17:09 51.27774 0.74226 10006 ft 290 kts 107°
2026-05-04 17:09 51.27192 0.77366 10745 ft 300 kts 107°
2026-05-04 17:10 51.25938 0.84152 11750 ft 336 kts 107°
2026-05-04 17:10 51.23799 0.95728 13434 ft 381 kts 106°
2026-05-04 17:11 51.23295 0.98444 14014 ft 383 kts 106°
2026-05-04 17:11 51.22537 1.02538 14861 ft 387 kts 107°
2026-05-04 17:11 51.20986 1.10865 16476 ft 395 kts 107°
2026-05-04 17:12 51.20192 1.15099 17276 ft 400 kts 107°
2026-05-04 17:12 51.18576 1.23682 18787 ft 408 kts 107°
2026-05-04 17:13 51.16380 1.37041 20812 ft 423 kts 101°
2026-05-04 17:14 51.15516 1.51319 22713 ft 439 kts 96°
2026-05-04 17:14 51.15288 1.56195 23353 ft 444 kts 96°
2026-05-04 17:14 51.14812 1.66101 24475 ft 451 kts 96°
2026-05-04 17:15 51.14564 1.71114 25040 ft 455 kts 96°
2026-05-04 17:15 51.14054 1.81243 26152 ft 461 kts 96°
2026-05-04 17:16 51.13531 1.91442 27225 ft 468 kts 97°
2026-05-04 17:16 51.12732 2.07079 28857 ft 476 kts 97°
2026-05-04 17:17 51.12472 2.12354 29439 ft 478 kts 97°
2026-05-04 17:17 51.11684 2.28053 31519 ft 470 kts 98°
2026-05-04 17:18 51.11416 2.33242 32099 ft 470 kts 98°
2026-05-04 17:18 51.10871 2.43607 33213 ft 469 kts 98°
2026-05-04 17:19 51.10316 2.53954 34276 ft 468 kts 98°
2026-05-04 17:19 51.09545 2.64224 35158 ft 466 kts 103°
2026-05-04 17:20 51.08080 2.74237 35975 ft 463 kts 109°
2026-05-04 17:20 51.06266 2.84086 36726 ft 464 kts 109°
2026-05-04 17:20 51.05353 2.89014 37084 ft 464 kts 109°
2026-05-04 17:21 51.03517 2.98894 37706 ft 467 kts 109°
2026-05-04 17:21 51.01677 3.08765 38206 ft 470 kts 109°
2026-05-04 17:22 51.00745 3.13753 38445 ft 472 kts 109°
2026-05-04 17:22 50.99809 3.18750 38673 ft 473 kts 109°
2026-05-04 17:23 50.96962 3.33869 38964 ft 477 kts 109°
2026-05-04 17:23 50.96006 3.38921 38971 ft 478 kts 109°
2026-05-04 17:24 50.93115 3.54080 38975 ft 478 kts 109°
2026-05-04 17:25 50.89468 3.74385 38972 ft 479 kts 108°
2026-05-04 17:26 50.86004 3.94809 38976 ft 480 kts 108°
2026-05-04 17:27 50.81608 4.20333 38981 ft 480 kts 108°
2026-05-04 17:28 50.78062 4.40652 38983 ft 480 kts 108°
2026-05-04 17:29 50.72662 4.71156 38977 ft 481 kts 109°
2026-05-04 17:31 50.68088 4.96591 38990 ft 481 kts 109°
2026-05-04 17:32 50.63472 5.21912 38976 ft 481 kts 109°
2026-05-04 17:33 50.59718 5.42238 39008 ft 482 kts 109°
2026-05-04 17:34 50.55939 5.62488 38998 ft 482 kts 109°
2026-05-04 17:35 50.51161 5.87767 39002 ft 481 kts 110°
2026-05-04 17:36 50.49233 5.97873 38992 ft 481 kts 110°
2026-05-04 17:36 50.47301 6.07945 38980 ft 481 kts 110°
2026-05-04 17:37 50.45361 6.17997 38984 ft 480 kts 110°
2026-05-04 17:37 50.43414 6.28033 38984 ft 480 kts 110°
2026-05-04 17:38 50.41748 6.38227 38987 ft 483 kts 104°
2026-05-04 17:38 50.40758 6.48692 38981 ft 485 kts 100°
2026-05-04 17:39 50.39564 6.64470 38996 ft 485 kts 100°
2026-05-04 17:39 50.38755 6.74919 39001 ft 485 kts 100°
2026-05-04 17:40 50.37927 6.85433 39008 ft 485 kts 100°
2026-05-04 17:40 50.37090 6.95929 38999 ft 485 kts 100°
2026-05-04 17:41 50.36241 7.06440 39010 ft 486 kts 100°
2026-05-04 17:41 50.35382 7.16943 39010 ft 486 kts 101°
2026-05-04 17:42 50.34514 7.27451 39016 ft 485 kts 101°
2026-05-04 17:42 50.33635 7.37953 39014 ft 485 kts 101°
2026-05-04 17:43 50.32750 7.48440 39007 ft 485 kts 101°
2026-05-04 17:43 50.31857 7.58871 39013 ft 485 kts 101°
2026-05-04 17:44 50.30951 7.69355 39011 ft 485 kts 101°
2026-05-04 17:44 50.30035 7.79839 39007 ft 486 kts 102°
2026-05-04 17:45 50.29091 7.90310 39002 ft 486 kts 103°
2026-05-04 17:45 50.27745 8.00672 39003 ft 485 kts 106°
2026-05-04 17:46 50.26304 8.10995 38996 ft 485 kts 105°
2026-05-04 17:46 50.24866 8.21316 38989 ft 485 kts 106°
2026-05-04 17:47 50.23404 8.31631 38970 ft 485 kts 106°
2026-05-04 17:47 50.21939 8.41948 38978 ft 486 kts 106°
2026-05-04 17:48 50.20469 8.52266 38992 ft 486 kts 106°
2026-05-04 17:48 50.18993 8.62569 38988 ft 486 kts 106°
2026-05-04 17:49 50.17517 8.72806 38990 ft 486 kts 106°
2026-05-04 17:49 50.16022 8.83102 38989 ft 486 kts 107°
2026-05-04 17:50 50.14519 8.93386 38992 ft 486 kts 107°
2026-05-04 17:50 50.13006 9.03673 38996 ft 485 kts 107°
2026-05-04 17:51 50.11485 9.13942 38999 ft 485 kts 107°
2026-05-04 17:51 50.09953 9.24211 38991 ft 486 kts 107°
2026-05-04 17:52 50.08412 9.34484 38994 ft 487 kts 107°
2026-05-04 17:52 50.06862 9.44762 38993 ft 487 kts 107°
2026-05-04 17:53 50.05305 9.55044 38987 ft 487 kts 107°
2026-05-04 17:53 50.03739 9.65296 38977 ft 487 kts 107°
2026-05-04 17:54 50.02159 9.75563 38979 ft 488 kts 107°
2026-05-04 17:54 50.00567 9.85838 38981 ft 488 kts 107°
2026-05-04 17:55 49.98969 9.96083 38970 ft 487 kts 107°
2026-05-04 17:55 49.97365 10.06304 38963 ft 486 kts 107°
2026-05-04 17:56 49.95745 10.16538 38976 ft 488 kts 107°
2026-05-04 17:56 49.94115 10.26792 38978 ft 488 kts 107°
2026-05-04 17:57 49.92426 10.36958 38989 ft 487 kts 110°
2026-05-04 17:57 49.90160 10.46835 38986 ft 485 kts 115°
2026-05-04 17:58 49.87639 10.56545 38975 ft 485 kts 115°
2026-05-04 17:58 49.85114 10.66245 38985 ft 485 kts 115°
2026-05-04 17:59 49.82584 10.75951 38975 ft 485 kts 115°
2026-05-04 18:00 49.79208 10.88845 38967 ft 485 kts 115°
2026-05-04 18:00 49.76662 10.98524 38967 ft 485 kts 115°
2026-05-04 18:01 49.74106 11.08195 38969 ft 485 kts 115°
2026-05-04 18:01 49.71543 11.17852 38968 ft 485 kts 115°
2026-05-04 18:02 49.67681 11.32321 38977 ft 485 kts 116°
2026-05-04 18:02 49.65177 11.42022 38974 ft 487 kts 112°
2026-05-04 18:03 49.63081 11.51996 38981 ft 488 kts 110°
2026-05-04 18:03 49.61015 11.61986 38989 ft 488 kts 110°
2026-05-04 18:04 49.58937 11.71957 38991 ft 487 kts 110°
2026-05-04 18:05 49.55803 11.86856 38999 ft 487 kts 110°
2026-05-04 18:05 49.53706 11.96776 38997 ft 486 kts 110°
2026-05-04 18:06 49.50544 12.11629 38991 ft 486 kts 111°
2026-05-04 18:06 49.48421 12.21527 38971 ft 486 kts 110°
2026-05-04 18:07 49.46309 12.31341 38971 ft 486 kts 111°
2026-05-04 18:07 49.44172 12.41223 38971 ft 486 kts 111°
2026-05-04 18:08 49.42026 12.51099 38974 ft 486 kts 111°
2026-05-04 18:08 49.39869 12.60966 38964 ft 486 kts 111°
2026-05-04 18:09 49.35487 12.80615 38967 ft 485 kts 112°
2026-05-04 18:10 49.33104 12.90304 38968 ft 485 kts 113°
2026-05-04 18:10 49.30711 12.99978 38966 ft 485 kts 113°
2026-05-04 18:11 49.28322 13.09653 38964 ft 485 kts 113°
2026-05-04 18:11 49.25928 13.19324 38960 ft 484 kts 113°
2026-05-04 18:12 49.24736 13.24124 38737 ft 481 kts 113°
2026-05-04 18:12 49.23528 13.28923 37902 ft 485 kts 114°
2026-05-04 18:12 49.22269 13.33668 36971 ft 490 kts 115°
2026-05-04 18:12 49.20945 13.38569 36190 ft 492 kts 115°
2026-05-04 18:13 49.19629 13.43410 35454 ft 493 kts 115°
2026-05-04 18:13 49.18310 13.48272 34750 ft 494 kts 115°
2026-05-04 18:13 49.15692 13.57931 33299 ft 495 kts 115°
2026-05-04 18:14 49.14368 13.62803 32481 ft 496 kts 115°
2026-05-04 18:14 49.13040 13.67678 31662 ft 498 kts 115°
2026-05-04 18:14 49.11713 13.72549 31145 ft 493 kts 115°
2026-05-04 18:15 49.09108 13.82083 30947 ft 484 kts 115°
2026-05-04 18:15 49.06498 13.91581 30950 ft 485 kts 115°
2026-05-04 18:16 49.03882 14.01079 30949 ft 485 kts 115°
2026-05-04 18:16 49.01257 14.10566 30949 ft 485 kts 115°
2026-05-04 18:17 48.97303 14.24762 30937 ft 484 kts 115°
2026-05-04 18:18 48.92540 14.38226 30936 ft 480 kts 128°
2026-05-04 18:18 48.88486 14.46296 30938 ft 480 kts 130°
2026-05-04 18:19 48.82368 14.58288 30587 ft 472 kts 129°
2026-05-04 18:19 48.80352 14.62245 29877 ft 474 kts 129°
2026-05-04 18:19 48.78324 14.66229 29080 ft 474 kts 129°
2026-05-04 18:20 48.76303 14.70197 28313 ft 474 kts 129°
2026-05-04 18:20 48.74282 14.74161 27564 ft 474 kts 129°
2026-05-04 18:20 48.72263 14.78115 26836 ft 474 kts 129°
2026-05-04 18:20 48.70242 14.82066 26123 ft 473 kts 129°
2026-05-04 18:21 48.68224 14.86005 25429 ft 472 kts 129°
2026-05-04 18:21 48.66205 14.89934 24751 ft 471 kts 129°
2026-05-04 18:21 48.64196 14.93837 24079 ft 469 kts 129°
2026-05-04 18:21 48.62218 14.97673 23435 ft 468 kts 129°
2026-05-04 18:22 48.60227 15.01538 22706 ft 465 kts 129°
2026-05-04 18:22 48.58551 15.05693 21813 ft 462 kts 113°
2026-05-04 18:22 48.57636 15.10290 20827 ft 450 kts 105°
2026-05-04 18:22 48.57379 15.11893 20542 ft 444 kts 104°
2026-05-04 18:23 48.56691 15.16368 19842 ft 427 kts 104°
2026-05-04 18:23 48.56018 15.20658 19159 ft 412 kts 105°
2026-05-04 18:23 48.55341 15.24786 18481 ft 398 kts 105°
2026-05-04 18:23 48.54665 15.28775 17823 ft 385 kts 106°
2026-05-04 18:24 48.54024 15.32645 17214 ft 381 kts 104°
2026-05-04 18:24 48.53449 15.36669 16956 ft 400 kts 103°
2026-05-04 18:24 48.52875 15.40826 16982 ft 408 kts 103°
2026-05-04 18:24 48.52619 15.42669 16834 ft 409 kts 103°
2026-05-04 18:25 48.52505 15.43491 16745 ft 409 kts 103°
2026-05-04 18:25 48.51915 15.47694 16057 ft 409 kts 103°
2026-05-04 18:26 48.51316 15.51909 15430 ft 408 kts 103°
2026-05-04 18:26 48.50718 15.56082 14915 ft 404 kts 104°
2026-05-04 18:26 48.50129 15.60156 14399 ft 401 kts 104°
2026-05-04 18:26 48.49535 15.64246 13889 ft 397 kts 104°
2026-05-04 18:27 48.48934 15.68358 13320 ft 394 kts 104°
2026-05-04 18:27 48.48343 15.72393 12739 ft 391 kts 104°
2026-05-04 18:27 48.47766 15.76315 12287 ft 385 kts 104°
2026-05-04 18:27 48.47190 15.80220 11647 ft 376 kts 104°
2026-05-04 18:28 48.46631 15.83995 11032 ft 360 kts 104°
2026-05-04 18:28 48.46095 15.87595 10508 ft 344 kts 104°
2026-05-04 18:28 48.45582 15.91042 10070 ft 329 kts 104°
2026-05-04 18:28 48.45102 15.94282 9997 ft 304 kts 104°
2026-05-04 18:29 48.44642 15.97359 9806 ft 299 kts 103°
2026-05-04 18:29 48.44184 16.00408 9413 ft 298 kts 104°
2026-05-04 18:29 48.43729 16.03448 9068 ft 296 kts 104°
2026-05-04 18:29 48.43277 16.06459 8756 ft 293 kts 104°
2026-05-04 18:30 48.42383 16.12386 8179 ft 287 kts 104°
2026-05-04 18:30 48.41947 16.15309 7886 ft 284 kts 105°
2026-05-04 18:30 48.41513 16.18194 7610 ft 281 kts 105°
2026-05-04 18:31 48.41078 16.21054 7332 ft 278 kts 104°
2026-05-04 18:31 48.40645 16.23888 7040 ft 276 kts 105°
2026-05-04 18:31 48.40217 16.26706 6765 ft 275 kts 104°
2026-05-04 18:31 48.39793 16.29510 6476 ft 273 kts 104°
2026-05-04 18:32 48.39366 16.32292 6181 ft 272 kts 105°
2026-05-04 18:32 48.38944 16.35062 5895 ft 271 kts 105°
2026-05-04 18:32 48.38526 16.37824 5601 ft 269 kts 105°
2026-05-04 18:32 48.38107 16.40563 5334 ft 267 kts 106°
2026-05-04 18:33 48.37688 16.43289 5086 ft 268 kts 106°
2026-05-04 18:33 48.37030 16.45826 4965 ft 252 kts 130°
2026-05-04 18:33 48.35780 16.47463 4979 ft 229 kts 155°
2026-05-04 18:33 48.34350 16.48351 4963 ft 218 kts 164°
2026-05-04 18:34 48.32918 16.48993 4775 ft 213 kts 167°
2026-05-04 18:34 48.31486 16.49581 4481 ft 213 kts 168°
2026-05-04 18:34 48.30059 16.50164 4201 ft 212 kts 168°
2026-05-04 18:34 48.28655 16.50746 3925 ft 212 kts 167°
2026-05-04 18:35 48.27233 16.51344 3632 ft 211 kts 168°
2026-05-04 18:35 48.25821 16.51941 3352 ft 210 kts 167°
2026-05-04 18:35 48.24414 16.52538 3083 ft 210 kts 167°
2026-05-04 18:35 48.23023 16.53129 2747 ft 205 kts 167°
2026-05-04 18:36 48.21667 16.53706 2555 ft 201 kts 167°
2026-05-04 18:36 48.20322 16.54275 2289 ft 200 kts 166°
2026-05-04 18:36 48.19007 16.54834 2015 ft 190 kts 165°
2026-05-04 18:36 48.17794 16.55350 1793 ft 173 kts 165°
2026-05-04 18:37 48.16683 16.55823 1562 ft 159 kts 166°
2026-05-04 18:37 48.15667 16.56253 1365 ft 146 kts 166°
2026-05-04 18:37 48.14693 16.56662 1179 ft 144 kts 162°
2026-05-04 18:37 48.13733 16.57073 1002 ft 143 kts 162°
2026-05-04 18:38 48.12777 16.57478 805 ft 142 kts 162°
2026-05-04 18:38 48.11834 16.57883 632 ft 139 kts 161°
2026-05-04 18:38 48.11047 16.58212 629 ft 90 kts 165°
2026-05-04 18:38 48.10611 16.58394 627 ft 49 kts 164°
2026-05-04 18:39 48.10290 16.58532 629 ft 46 kts 164°
2026-05-04 18:39 48.10040 16.58614 629 ft 28 kts 176°
2026-05-04 18:39 48.09844 16.58596 626 ft 28 kts 188°
2026-05-04 18:39 48.09710 16.58563 631 ft 7 kts 191°
2026-05-04 18:40 48.09662 16.58520 627 ft 10 kts 235°
2026-05-04 18:40 48.09651 16.58414 627 ft 12 kts 297°
2026-05-04 18:40 48.09730 16.58350 624 ft 15 kts 342°
2026-05-04 18:40 48.09842 16.58299 627 ft 18 kts 344°
2026-05-04 18:41 48.09976 16.58246 630 ft 21 kts 343°
2026-05-04 18:41 48.10127 16.58182 628 ft 24 kts 344°
2026-05-04 18:41 48.10294 16.58112 630 ft 26 kts 344°
2026-05-04 18:41 48.10476 16.58035 628 ft 28 kts 344°
2026-05-04 18:42 48.10669 16.57953 630 ft 30 kts 344°
2026-05-04 18:42 48.10872 16.57866 630 ft 31 kts 344°
2026-05-04 18:42 48.11004 16.57807 632 ft 17 kts 336°
2026-05-04 18:42 48.11082 16.57664 629 ft 20 kts 296°
2026-05-04 18:43 48.11148 16.57461 630 ft 23 kts 296°
2026-05-04 18:43 48.11221 16.57236 628 ft 25 kts 296°
2026-05-04 18:43 48.11300 16.56991 628 ft 27 kts 292°
2026-05-04 18:43 48.11384 16.56735 630 ft 28 kts 296°
2026-05-04 18:44 48.11472 16.56467 628 ft 24 kts 296°
2026-05-04 18:44 48.11488 16.56417 627 ft 5 kts 296°
2026-05-04 18:44 48.11518 16.56327 630 ft 15 kts 296°
2026-05-04 18:44 48.11590 16.56199 627 ft 18 kts 351°
2026-05-04 18:45 48.11669 16.56246 628 ft 4 kts 32°
2026-05-04 18:45 48.11704 16.56277 630 ft 7 kts 27°
2026-05-04 18:45 48.11760 16.56311 626 ft 4 kts
2026-05-04 18:45 48.11784 16.56300 628 ft 8 kts 324°
2026-05-04 18:46 48.11802 16.56265 630 ft 3 kts 303°
2026-05-04 18:46 48.11816 16.56235 623 ft 0 kts 303°